This demonstration page uses our WeatherBlox Daily Observations layout. Learn more.

Left ArrowRight Arrow

Hourly Observations for August 17, 2015

Temp ( °F °C ) Dew Point ( °F °C ) Humidity (%) Winds ( mph kmh ) Pressure ( in mb ) Visibility ( mi km ) Precip ( " mm )
12:54 am 00:54 Cloudy 76 24.4 68 20 77 77 SSE 5 7 29.96 1014 10 16.0934 0 0
1:47 am 01:47 Cloudy with Nearby Thunderstorms 75 23.9 68 20 79 79 SSE 3 6 29.94 1014 10 16.0934 0 0
1:54 am 01:54 Cloudy with Nearby Thunderstorms 75 23.9 68 20 79 79 ESE 6 9 29.97 1015 10 16.0934 0 0
2:20 am 02:20 Cloudy with Light Rain 73 23 70 21 89 89 NW 6 9 30 1016 6 9.65604 0 0
2:54 am 02:54 Cloudy with Light Rain 72 22.2 69 20.6 91 91 Calm 29.99 1016 5 8.0467 0.05 1.27
3:10 am 03:10 Cloudy with Rain 72 22.2 68 20 87 87 Calm 30 1016 2.5 4.02335 0.05 1.27
3:21 am 03:21 Cloudy with Rain 72 22.2 68 20 87 87 Calm 30 1016 3 4.82802 0.08 2.032
3:54 am 03:54 Cloudy with Rain 71 21.7 67 19.4 87 87 Calm 29.98 1015 3 4.82802 0.16 4.064
4:54 am 04:54 Cloudy with Light Rain 70 21.1 68 20 93 93 N 5 7 29.98 1015 5 8.0467 0.09 2.286
5:21 am 05:21 Cloudy with Heavy Rain 70 21.1 68 20 93 93 ENE 7 11 29.97 1015 2 3.21868 0.08 2.032
5:38 am 05:38 Cloudy with Rain 70 21 70 21 100 100 E 7 11 29.97 1015 4 6.43736 0 0
5:54 am 05:54 Cloudy with Light Rain 70 21.1 68 20 93 93 ENE 7 11 29.97 1015 5 8.0467 0.19 4.826
6:54 am 06:54 Cloudy with Light Rain 70 21.1 68 20 93 93 ENE 9 15 29.97 1015 6 9.65604 0.03 0.762
7:54 am 07:54 Cloudy with Heavy Rain 70 21.1 68 20 93 93 Calm 30 1016 2 3.21868 0.13 3.302
8:18 am 08:18 Cloudy with Heavy Rain 70 21 68 20 94 94 SE 9 15 29.97 1015 1.5 2.41401 0 0
8:25 am 08:25 Mostly Cloudy with Nearby Thunderstorms 70 21 68 20 94 94 SSE 12 19 29.97 1015 3 4.82802 0 0
8:46 am 08:46 Mostly Cloudy with Light Rain 70 21.1 68 20 93 93 S 14 22 29.94 1014 4 6.43736 0.12 3.048
8:54 am 08:54 Mostly Cloudy with Light Rain 70 21.1 68 20 93 93 S 14 22 29.94 1014 4 6.43736 0.13 3.302
9:04 am 09:04 Mostly Cloudy with Nearby Thunderstorms 72 22 68 20 88 88 S 14 22 29.94 1014 6 9.65604 0 0
9:20 am 09:20 Cloudy with Light Rain 72 22 68 20 88 88 S 10 17 29.94 1014 5 8.0467 0 0
9:54 am 09:54 Cloudy 71 21.7 68 20 90 90 S 10 17 29.93 1013 7 11.26538 0.01 0.254
10:54 am 10:54 Cloudy 72 22.2 67 19.4 84 84 VRB 3 6 29.97 1015 7 11.26538 0 0.0254
11:49 am 11:49 Cloudy with Nearby Thunderstorms 72 22 66 19 83 83 N 7 11 30 1016 7 11.26538 0 0
11:54 am 11:54 Cloudy with Nearby Thunderstorms 71 21.7 68 20 90 90 N 9 15 29.99 1016 2.5 4.02335 0.02 0.508
12:03 pm 12:03 Cloudy with Nearby Thunderstorms 70 21 68 20 94 94 N 13 20 30 1016 1.75 2.816345 0 0
12:07 pm 12:07 Cloudy with Rain 70 21.1 68 20 93 93 N 12 19 30 1016 2 3.21868 0.08 2.032
12:32 pm 12:32 Cloudy with Nearby Thunderstorms 70 21 70 21 100 100 ENE 8 13 30 1016 1 1.60934 0 0
12:34 pm 12:34 Cloudy with Nearby Thunderstorms 70 21 68 20 94 94 ENE 10 17 30 1016 0.75 1.207005 0 0
12:46 pm 12:46 Cloudy with Nearby Thunderstorms 70 21 68 20 94 94 SE 12 19 30 1016 2 3.21868 0 0
12:54 pm 12:54 Cloudy with Nearby Thunderstorms 70 21.1 68 20 93 93 ESE 6 9 30.01 1016 3 4.82802 0.4 10.16
1:01 pm 13:01 Cloudy with Nearby Thunderstorms 70 21.1 68 20 93 93 SSE 7 11 30 1016 1.75 2.816345 0.02 0.508
1:09 pm 13:09 Cloudy with Rain 70 21.1 68 20 93 93 S 9 15 30 1016 1.5 2.41401 0.08 2.032
1:19 pm 13:19 Cloudy with Nearby Thunderstorms 70 21.1 69 20.6 97 97 S 9 15 30 1016 1.25 2.011675 0.14 3.556
1:33 pm 13:33 Cloudy with Light Rain 70 21.1 69 20.6 97 97 S 12 19 29.97 1015 3 4.82802 0.16 4.064
1:54 pm 13:54 Cloudy with Light Rain 71 21.7 69 20.6 94 94 SSE 15 24 29.95 1014 3 4.82802 0.17 4.318
2:54 pm 14:54 Cloudy with Mist and Fog 73 22.8 69 20.6 87 87 Calm 29.94 1014 6 9.65604 0.03 0.762
3:54 pm 15:54 Partly Cloudy with Light Rain 76 24.4 69 20.6 79 79 WNW 3 6 29.93 1013 8 12.87472 0.21 5.334
4:54 pm 16:54 Sunny 77 25 69 20.6 77 77 N 9 15 29.91 1013 9 14.48406 0 0.0254
5:33 pm 17:33 Mostly Cloudy with Nearby Thunderstorms 76 24.4 68 20 77 77 N 8 13 29.88 1012 10 16.0934 0 0
5:50 pm 17:50 Cloudy with Thunderstorms 75 24 68 20 78 78 N 10 17 29.88 1012 10 16.0934 0 0
5:54 pm 17:54 Cloudy with Thunderstorms 74 23.3 68 20 82 82 NNE 5 7 29.9 1013 10 16.0934 0 0
6:18 pm 18:18 Cloudy with Light Rain 75 23.9 68 20 79 79 NNE 5 7 29.85 1011 7 11.26538 0.01 0.254
6:54 pm 18:54 Sunny 75 23.9 69 20.6 82 82 NNE 8 13 29.87 1012 10 16.0934 0.01 0.254
7:32 pm 19:32 Mostly Cloudy 72 22 70 21 94 94 N 10 17 29.88 1012 8 12.87472 0 0
7:51 pm 19:51 Cloudy 72 22 70 21 94 94 N 8 13 29.88 1012 8 12.87472 0 0
7:54 pm 19:54 Cloudy 71 21.7 69 20.6 94 94 N 10 17 29.87 1012 8 12.87472 0 0
8:09 pm 20:09 Cloudy 71 21.7 69 20.6 94 94 N 9 15 29.88 1012 7 11.26538 0 0
8:18 pm 20:18 Cloudy 72 22 68 20 88 88 N 13 20 29.88 1012 7 11.26538 0 0
8:29 pm 20:29 Cloudy 70 21.1 68 20 93 93 N 12 19 29.91 1013 7 11.26538 0 0
8:43 pm 20:43 Cloudy 70 21 68 20 94 94 N 10 17 29.91 1013 9 14.48406 0 0
8:50 pm 20:50 Cloudy 70 21 68 20 94 94 N 7 11 29.91 1013 9 14.48406 0 0
8:54 pm 20:54 Cloudy 70 21.1 68 20 93 93 N 8 13 29.91 1013 9 14.48406 0 0
9:54 pm 21:54 Cloudy 69 20.6 67 19.4 93 93 NE 8 13 29.89 1012 9 14.48406 0 0
10:28 pm 22:28 Mostly Cloudy 68 20 66 19 94 94 NE 9 15 29.88 1012 9 14.48406 0 0
10:49 pm 22:49 Mostly Cloudy 68 20 66 19 94 94 NE 6 9 29.88 1012 9 14.48406 0 0
10:54 pm 22:54 Mostly Cloudy 68 20 66 18.9 93 93 NE 6 9 29.89 1012 9 14.48406 0 0
11:06 pm 23:06 Cloudy 68 20 66 18.9 93 93 ENE 7 11 29.88 1012 9 14.48406 0 0
11:48 pm 23:48 Cloudy with Thunderstorms 70 21 66 19 88 88 NNE 5 7 29.88 1012 9 14.48406 0 0
11:54 pm 23:54 Cloudy with Thunderstorms 69 20.6 67 19.4 93 93 N 3 6 29.89 1012 9 14.48406 0 0

Powered by AerisWeather